Kinston Regional Jetport At Stallings Field
KISO : now visible

Airfield :











YOU CAN JOIN US ON...

 
LOGIN :

Register | Disclaimer

   EN    FR    IT 

 









Legend :    VFR   Marginal VFR   IFR   Intensive IFR   Very Intensive IFR
Visi :
Ceiling :
>= 8 km
>= 3000ft
5 to 8 km
1000 to 3000 ft
1500m to 5 km
500 to 1000 ft
800 to 1500m
200 to 500 ft
< 800m
< 200 ft
Symbols :   Thunderstorms  Fog  Heavy snow  Heavy precipitations  Wind > 20 kt






- Airport Elevation : 93 ft


KISO - Kinston Regional Jetport At Stallings Field

CURRENT METAR :
  • 260555Z AUTO 07003KT 1 1/2SM BR OVC003 07/07 A2991 RMK AO2 60001 T00680068 10080 20067 400820033

EXPIRED METARs :
  • 260535Z AUTO 10006KT 3SM BR OVC003 07/07 A2990 RMK AO2 T00680068
  • 260515Z AUTO 04004KT 5SM BR OVC003 07/07 A2992 RMK AO2 T00700070

TAF KISO
Valid from the 26 at 06:00 until the 27 at 06:00 UTC


260552Z 2606/2706 VRB03KT 1/2SM FG VCSH OVC003
FM261000 00000KT 1SM -SHRA BR OVC003
FM261600 25009G17KT P6SM BKN008
FM262100 26004KT P6SM OVC015
FM270300 24004KT 4SM BR OVC007 AMD LTD TO CLD VIS AND WIND
KZDC FIR / North America



MET'MAP, your aeronautical weather chart ! - Copyright ORBIFLY December 2007 - Disclaimer

ORBIFLY MET'MAP TEAM :

Programming & Development : Alexandra Zaïnal
Concept & original design : Baudouin d'Aumeries
Assistance for programming : Marc-Olivier Méhu
Technical & hardware support : Manuel Goepfert

Contact : metmap@orbifly.com




SOURCES & CREDITS :

   NOAA       Earth
Advisory